Regional Weather Roundup
Issued by NWS

Home | Current Version | Previous Version | Graphics & Text | Print | Product List | Glossary On
Versions: 1 2 3 4 5 6 7 8 9 10 11 12 13 14 15 16 17 18 19 20 21 22 23 24 25 26 27 28 29 30 31 32 33 34 35 36 37 38 39 40 41 42 43 44 45 46 47 48 49 50
838
ASUS44 KLIX 251001
RWRLA
LOUISIANA WEATHER ROUNDUP
NATIONAL WEATHER SERVICE NEW ORLEANS LA
500 AM CDT SAT OCT 25 2014

NOTE: "FAIR" INDICATES FEW OR NO CLOUDS BELOW 12,000 FEET WITH NO
      SIGNIFICANT WEATHER AND/OR OBSTRUCTIONS TO VISIBILITY.
      SKY/WX - SKY CONDITION AND SIGNIFICANT WEATHER.
      TMP - AIR TEMPERATURE.    DP   - DEWPOINT TEMPERATURE.
      RH  - RELATIVE HUMIDITY.  PRES - PRESSURE.
      HX  - HEAT INDEX.         WCI  - WIND CHILL INDEX.

*  THESE STATIONS ARE NOT NWS OR FAA STATIONS AND ARE NOT UNDER
   NWS QUALITY CONTROL.

LAZ040-048-061>063-065-066-069-251100-
SOUTHEAST LOUISIANA

CITY           SKY/WX    TMP DP  RH WIND       PRES   REMARKS
N.O. AUDUBON     N/A     59  53  80 MISG        N/A
N.O. INTL ARPT CLEAR     60  51  72 N10       30.10R
N.O. LAKEFRONT CLEAR     66  52  60 NE16      30.10R
N.O. DOWNTOWN* FAIR      64  48  55 N6        30.11R
SLIDELL        CLEAR     48  44  86 N3        30.09R
BATON ROUGE    CLEAR     48  45  89 CALM      30.12R
BOOTHVILLE     CLEAR     68  59  73 VRB5      30.08R
BELLE CHASSE   CLEAR     50  47  89 NE3       30.10R
BOGALUSA*      FAIR      44  41  89 CALM      30.12S
NEW ROADS*     FAIR      47  46  97 CALM      30.13R
GONZALES*      FAIR      50  50  99 CALM      30.11R
HAMMOND*       NOT AVBL
HOUMA*         CLEAR     55  51  89 CALM      30.10R
PORT FOURCHON* SUNNY     64  57  77 N8        30.12R

$$

LAZ041-044-053-054-251100-
SOUTHWEST LOUISIANA

CITY           SKY/WX    TMP DP  RH WIND       PRES   REMARKS
LAKE CHARLES   CLEAR     51  49  92 CALM      30.12S
LAFAYETTE      CLEAR     52  50  93 CALM      30.12S
PATTERSON      CLEAR     52  50  93 CALM      30.13R
SALT POINT       N/A     56  52  86 CALM      30.10S
NEW IBERIA     CLEAR     53  48  83 N6        30.12S
CHENAULT AIRPK NOT AVBL

$$

LAZ027-028-251100-
CENTRAL LOUISIANA

CITY           SKY/WX    TMP DP  RH WIND       PRES   REMARKS
FORT POLK      CLEAR     50  49  96 NW2       30.13R
ALEXANDRIA INT PTCLDY    48  47  96 CALM      30.12R
ALEXANDRIA     CLEAR     43  42  97 CALM      30.13S

$$

LAZ001-002-251100-
NORTHWEST LOUISIANA

CITY           SKY/WX    TMP DP  RH WIND       PRES   REMARKS
SHREVEPORT     CLEAR     54  52  93 CALM      30.12S
BARKSDALE AFB  CLEAR     51  51  98 S6        30.13R
DTN SHREVEPORT CLEAR     56  52  86 CALM      30.12S

$$

LAZ014-016-251100-
NORTHEAST LOUISIANA

CITY           SKY/WX    TMP DP  RH WIND       PRES   REMARKS
MONROE         CLEAR     50  48  93 CALM      30.14S
TALLULAH       CLEAR     43  43 100 CALM      30.13R

$$




USA.gov is the U.S. government's official web portal to all federal, state and local government web resources and services.